Time,TemperatureF,DewpointF,PressureIn,WindDirection,WindDirectionDegrees,WindSpeedMPH,WindSpeedGustMPH,Humidity,HourlyPrecipIn,Conditions,Clouds,dailyrainin,SoftwareType,DateUTC
2013-04-19 00:00:00,41.9,37.4,29.42,SSW,202,0.1,0.0,84,0.00,CLR,OVC,0.04,WeatherDisplay:10.37,2013-04-18 23:00:00,
2013-04-19 00:05:00,41.9,37.4,29.42,WSW,248,0.0,0.0,84,0.00,RA,OVC,0.00,WeatherDisplay:10.37,2013-04-18 23:05:00,
2013-04-19 00:10:00,41.9,37.4,29.43,West,270,3.6,4.6,84,0.00,CLR,OVC,0.00,WeatherDisplay:10.37,2013-04-18 23:10:00,
2013-04-19 00:15:00,42.1,37.6,29.43,West,270,1.5,2.3,84,0.00,CLR,OVC,0.00,WeatherDisplay:10.37,2013-04-18 23:15:00,
2013-04-19 00:20:00,42.1,37.6,29.44,West,270,1.1,1.1,84,0.00,CLR,OVC,0.00,WeatherDisplay:10.37,2013-04-18 23:20:00,
2013-04-19 00:25:00,42.1,37.6,29.44,West,270,3.2,3.2,84,0.00,CLR,OVC,0.00,WeatherDisplay:10.37,2013-04-18 23:25:00,
2013-04-19 00:30:00,42.1,37.6,29.44,WSW,248,1.4,2.3,84,0.00,CLR,OVC,0.00,WeatherDisplay:10.37,2013-04-18 23:30:00,
2013-04-19 00:35:00,42.1,37.6,29.44,WNW,292,3.8,3.8,84,0.00,CLR,OVC,0.00,WeatherDisplay:10.37,2013-04-18 23:35:00,
2013-04-19 00:40:00,42.1,37.6,29.45,SW,225,4.9,5.8,84,0.00,CLR,OVC,0.00,WeatherDisplay:10.37,2013-04-18 23:40:00,
2013-04-19 00:45:00,42.1,37.6,29.45,SW,225,2.5,2.5,84,0.00,CLR,OVC,0.00,WeatherDisplay:10.37,2013-04-18 23:45:00,
2013-04-19 00:50:00,42.1,37.6,29.45,South,180,4.0,4.6,84,0.00,CLR,OVC,0.00,WeatherDisplay:10.37,2013-04-18 23:50:00,
2013-04-19 00:55:00,42.1,37.6,29.46,West,270,0.5,2.3,84,0.00,CLR,OVC,0.00,WeatherDisplay:10.37,2013-04-18 23:55:00,
2013-04-19 01:00:00,42.1,37.6,29.46,SSW,202,1.9,2.3,84,0.00,CLR,OVC,0.00,WeatherDisplay:10.37,2013-04-19 00:00:00,
2013-04-19 01:05:00,42.1,37.6,29.46,SSW,202,1.6,1.6,84,0.00,CLR,OVC,0.00,WeatherDisplay:10.37,2013-04-19 00:05:00,
2013-04-19 01:10:00,42.1,37.6,29.46,WSW,248,2.0,2.3,84,0.00,CLR,OVC,0.00,WeatherDisplay:10.37,2013-04-19 00:10:00,
2013-04-19 01:15:00,42.1,37.6,29.47,West,270,0.8,3.5,84,0.00,CLR,OVC,0.00,WeatherDisplay:10.37,2013-04-19 00:15:00,
2013-04-19 01:20:00,41.9,37.4,29.47,WSW,248,1.9,2.3,84,0.00,CLR,OVC,0.00,WeatherDisplay:10.37,2013-04-19 00:20:00,
2013-04-19 01:25:00,42.1,37.6,29.47,WNW,292,1.1,3.5,84,0.00,CLR,OVC,0.00,WeatherDisplay:10.37,2013-04-19 00:25:00,
2013-04-19 01:30:00,41.9,37.4,29.48,NW,315,5.8,6.9,84,0.00,CLR,OVC,0.00,WeatherDisplay:10.37,2013-04-19 00:30:00,
2013-04-19 01:35:00,41.9,37.4,29.48,West,270,4.7,4.7,84,0.00,CLR,OVC,0.00,WeatherDisplay:10.37,2013-04-19 00:35:00,
2013-04-19 01:40:00,41.9,37.4,29.48,SSE,158,3.1,3.1,84,0.00,CLR,OVC,0.00,WeatherDisplay:10.37,2013-04-19 00:40:00,
2013-04-19 01:45:00,41.9,37.4,29.48,WSW,248,5.4,5.4,84,0.00,CLR,OVC,0.00,WeatherDisplay:10.37,2013-04-19 00:45:00,
2013-04-19 01:50:00,41.9,37.4,29.49,SW,225,3.1,3.5,84,0.00,CLR,OVC,0.00,WeatherDisplay:10.37,2013-04-19 00:50:00,
2013-04-19 01:55:00,41.7,37.2,29.49,West,270,6.7,0.0,84,0.00,CLR,OVC,0.00,WeatherDisplay:10.37,2013-04-19 00:55:00,
2013-04-19 02:00:00,41.7,37.2,29.49,WNW,292,3.3,3.5,84,0.00,CLR,OVC,0.00,WeatherDisplay:10.37,2013-04-19 01:00:00,
2013-04-19 02:05:00,41.7,37.2,29.50,WNW,292,1.8,2.3,84,0.00,CLR,OVC,0.00,WeatherDisplay:10.37,2013-04-19 01:05:00,
2013-04-19 02:10:00,41.7,37.2,29.50,West,270,3.6,3.6,84,0.00,CLR,OVC,0.00,WeatherDisplay:10.37,2013-04-19 01:10:00,
2013-04-19 02:15:00,41.7,37.2,29.50,West,270,2.2,2.2,84,0.00,CLR,OVC,0.00,WeatherDisplay:10.37,2013-04-19 01:15:00,
2013-04-19 02:20:00,41.7,37.5,29.51,South,180,1.2,1.2,85,0.00,CLR,OVC,0.00,WeatherDisplay:10.37,2013-04-19 01:20:00,
2013-04-19 02:25:00,41.7,37.5,29.51,WNW,292,0.0,0.0,85,0.00,CLR,OVC,0.00,WeatherDisplay:10.37,2013-04-19 01:25:00,
2013-04-19 02:30:00,41.7,37.5,29.52,North,0,1.2,4.6,85,0.00,CLR,OVC,0.00,WeatherDisplay:10.37,2013-04-19 01:30:00,
2013-04-19 02:35:00,41.7,37.5,29.52,NNW,338,9.1,9.1,85,0.00,CLR,OVC,0.00,WeatherDisplay:10.37,2013-04-19 01:35:00,
2013-04-19 02:40:00,41.7,37.5,29.52,NNW,338,2.7,3.5,85,0.00,CLR,OVC,0.00,WeatherDisplay:10.37,2013-04-19 01:40:00,
2013-04-19 02:45:00,41.5,37.4,29.52,NNW,338,2.3,2.3,85,0.00,CLR,OVC,0.00,WeatherDisplay:10.37,2013-04-19 01:45:00,
2013-04-19 02:50:00,41.4,37.2,29.52,NNW,338,0.0,0.0,85,0.00,CLR,OVC,0.00,WeatherDisplay:10.37,2013-04-19 01:50:00,
2013-04-19 02:55:00,41.2,37.0,29.53,NNW,338,0.0,0.0,85,0.00,CLR,OVC,0.00,WeatherDisplay:10.37,2013-04-19 01:55:00,
2013-04-19 03:00:00,41.0,36.8,29.53,WSW,248,0.0,0.0,85,0.00,CLR,OVC,0.00,WeatherDisplay:10.37,2013-04-19 02:00:00,
2013-04-19 03:05:00,41.0,36.8,29.53,WSW,248,0.0,0.0,85,0.00,CLR,OVC,0.00,WeatherDisplay:10.37,2013-04-19 02:05:00,
2013-04-19 03:10:00,41.0,36.8,29.53,WSW,248,0.0,0.0,85,0.00,CLR,OVC,0.00,WeatherDisplay:10.37,2013-04-19 02:10:00,
2013-04-19 03:15:00,40.8,36.7,29.54,SW,225,0.0,0.0,85,0.00,CLR,OVC,0.00,WeatherDisplay:10.37,2013-04-19 02:15:00,
2013-04-19 03:20:00,40.8,36.7,29.54,SSW,202,0.0,0.0,85,0.00,CLR,OVC,0.00,WeatherDisplay:10.37,2013-04-19 02:20:00,
2013-04-19 03:25:00,40.8,37.0,29.54,SW,225,0.0,0.0,86,0.00,CLR,OVC,0.00,WeatherDisplay:10.37,2013-04-19 02:25:00,
2013-04-19 03:30:00,40.6,36.8,29.54,WSW,248,0.0,0.0,86,0.00,CLR,OVC,0.00,WeatherDisplay:10.37,2013-04-19 02:30:00,
2013-04-19 03:35:00,40.5,36.6,29.54,WSW,248,0.0,0.0,86,0.00,CLR,OVC,0.00,WeatherDisplay:10.37,2013-04-19 02:35:00,
2013-04-19 03:40:00,40.3,36.1,29.55,WSW,248,0.2,1.1,85,0.00,CLR,OVC,0.00,WeatherDisplay:10.37,2013-04-19 02:40:00,
2013-04-19 03:45:00,40.3,36.1,29.55,West,270,1.2,0.0,85,0.00,CLR,OVC,0.00,WeatherDisplay:10.37,2013-04-19 02:45:00,
2013-04-19 03:50:00,40.1,36.0,29.55,West,270,0.0,0.0,85,0.00,CLR,OVC,0.00,WeatherDisplay:10.37,2013-04-19 02:50:00,
2013-04-19 03:55:00,39.9,35.8,29.55,SSW,202,0.0,0.0,85,0.00,CLR,OVC,0.00,WeatherDisplay:10.37,2013-04-19 02:55:00,
2013-04-19 04:00:00,39.9,36.1,29.55,SSE,158,0.0,1.1,86,0.00,CLR,OVC,0.00,WeatherDisplay:10.37,2013-04-19 03:00:00,
2013-04-19 04:05:00,39.6,35.7,29.55,SSE,158,0.9,0.0,86,0.00,CLR,OVC,0.00,WeatherDisplay:10.37,2013-04-19 03:05:00,
2013-04-19 04:10:00,39.4,35.5,29.57,WSW,248,0.0,0.0,86,0.00,CLR,OVC,0.00,WeatherDisplay:10.37,2013-04-19 03:10:00,
2013-04-19 04:15:00,39.4,35.5,29.57,WSW,248,0.9,0.0,86,0.00,CLR,OVC,0.00,WeatherDisplay:10.37,2013-04-19 03:15:00,
2013-04-19 04:20:00,39.0,35.2,29.57,WSW,248,1.5,1.5,86,0.00,CLR,OVC,0.00,WeatherDisplay:10.37,2013-04-19 03:20:00,
2013-04-19 04:25:00,39.0,35.2,29.57,NW,315,0.0,0.0,86,0.00,CLR,OVC,0.00,WeatherDisplay:10.37,2013-04-19 03:25:00,
2013-04-19 04:30:00,39.0,35.2,29.57,West,270,1.3,1.3,86,0.00,CLR,OVC,0.00,WeatherDisplay:10.37,2013-04-19 03:30:00,
2013-04-19 04:35:00,38.8,35.0,29.57,WSW,248,1.7,2.3,86,0.00,CLR,OVC,0.00,WeatherDisplay:10.37,2013-04-19 03:35:00,
2013-04-19 04:40:00,38.5,34.7,29.57,WSW,248,4.1,4.6,86,0.00,CLR,OVC,0.00,WeatherDisplay:10.37,2013-04-19 03:40:00,
2013-04-19 04:45:00,38.5,34.7,29.58,West,270,0.3,1.1,86,0.00,CLR,OVC,0.00,WeatherDisplay:10.37,2013-04-19 03:45:00,
2013-04-19 04:50:00,38.3,34.5,29.58,SW,225,1.1,2.3,86,0.00,CLR,OVC,0.00,WeatherDisplay:10.37,2013-04-19 03:50:00,
2013-04-19 04:55:00,38.1,34.3,29.59,SW,225,1.9,1.9,86,0.00,CLR,OVC,0.00,WeatherDisplay:10.37,2013-04-19 03:55:00,
2013-04-19 05:00:00,37.9,34.4,29.59,WSW,248,1.2,1.2,87,0.00,CLR,OVC,0.00,WeatherDisplay:10.37,2013-04-19 04:00:00,
2013-04-19 05:01:00,37.9,34.4,29.59,WSW,248,1.2,1.2,87,0.00,CLR,OVC,0.00,WeatherDisplay:10.37,2013-04-19 04:01:00,
2013-04-19 05:06:00,37.8,33.9,29.59,WSW,248,1.6,1.6,86,0.00,CLR,OVC,0.00,WeatherDisplay:10.37,2013-04-19 04:06:00,
2013-04-19 05:11:00,37.6,34.1,29.59,SSW,202,1.9,0.0,87,0.00,CLR,OVC,0.00,WeatherDisplay:10.37,2013-04-19 04:11:00,
2013-04-19 05:16:00,37.4,33.9,29.59,SSW,202,0.0,0.0,87,0.00,CLR,OVC,0.00,WeatherDisplay:10.37,2013-04-19 04:16:00,
2013-04-19 05:21:00,37.2,33.7,29.59,SSW,202,0.0,0.0,87,0.00,CLR,OVC,0.00,WeatherDisplay:10.37,2013-04-19 04:21:00,
2013-04-19 05:26:00,37.0,33.2,29.60,South,180,0.0,0.0,86,0.00,CLR,OVC,0.00,WeatherDisplay:10.37,2013-04-19 04:26:00,
2013-04-19 05:31:00,37.0,33.2,29.60,South,180,0.0,0.0,86,0.00,CLR,OVC,0.00,WeatherDisplay:10.37,2013-04-19 04:31:00,
2013-04-19 05:36:00,36.9,33.1,29.60,WSW,248,0.0,0.0,86,0.00,CLR,OVC,0.00,WeatherDisplay:10.37,2013-04-19 04:36:00,
2013-04-19 05:41:00,36.7,32.9,29.60,WSW,248,0.2,1.1,86,0.00,CLR,OVC,0.00,WeatherDisplay:10.37,2013-04-19 04:41:00,
2013-04-19 05:46:00,36.7,32.9,29.60,WSW,248,0.0,0.0,86,0.00,CLR,OVC,0.00,WeatherDisplay:10.37,2013-04-19 04:46:00,
2013-04-19 05:51:00,36.5,32.7,29.62,SSW,202,0.0,0.0,86,0.00,CLR,OVC,0.00,WeatherDisplay:10.37,2013-04-19 04:51:00,
2013-04-19 05:56:00,36.3,32.8,29.62,South,180,0.0,0.0,87,0.00,CLR,OVC,0.00,WeatherDisplay:10.37,2013-04-19 04:56:00,
2013-04-19 06:01:00,36.3,32.8,29.62,SW,225,0.0,0.0,87,0.00,CLR,OVC,0.00,WeatherDisplay:10.37,2013-04-19 05:01:00,
2013-04-19 06:06:00,36.3,32.8,29.62,SSE,158,0.0,0.0,87,0.00,CLR,OVC,0.00,WeatherDisplay:10.37,2013-04-19 05:06:00,
2013-04-19 06:11:00,36.3,32.8,29.63,SSE,158,1.3,1.3,87,0.00,CLR,OVC,0.00,WeatherDisplay:10.37,2013-04-19 05:11:00,
2013-04-19 06:16:00,36.1,32.6,29.63,SSE,158,1.7,2.3,87,0.00,CLR,OVC,0.00,WeatherDisplay:10.37,2013-04-19 05:16:00,
2013-04-19 06:21:00,36.1,32.6,29.64,South,180,0.0,0.0,87,0.00,CLR,OVC,0.00,WeatherDisplay:10.37,2013-04-19 05:21:00,
2013-04-19 06:26:00,36.1,32.6,29.64,SSE,158,0.3,1.1,87,0.00,CLR,OVC,0.00,WeatherDisplay:10.37,2013-04-19 05:26:00,
2013-04-19 06:31:00,36.1,32.6,29.64,SE,135,0.0,0.0,87,0.00,CLR,OVC,0.00,WeatherDisplay:10.37,2013-04-19 05:31:00,
2013-04-19 06:36:00,36.0,32.5,29.64,SSE,158,0.7,1.1,87,0.00,CLR,OVC,0.00,WeatherDisplay:10.37,2013-04-19 05:36:00,
2013-04-19 06:42:00,36.0,32.5,29.65,SSE,158,0.0,0.0,87,0.00,CLR,OVC,0.00,WeatherDisplay:10.37,2013-04-19 05:42:00,
2013-04-19 06:47:00,36.0,32.5,29.65,SW,225,0.0,0.0,87,0.00,CLR,OVC,0.00,WeatherDisplay:10.37,2013-04-19 05:47:00,
2013-04-19 06:52:00,36.0,32.5,29.66,SW,225,0.0,0.0,87,0.00,CLR,OVC,0.00,WeatherDisplay:10.37,2013-04-19 05:52:00,
2013-04-19 06:57:00,36.1,32.9,29.66,SW,225,0.0,0.0,88,0.00,CLR,OVC,0.00,WeatherDisplay:10.37,2013-04-19 05:57:00,
2013-04-19 07:02:00,36.3,33.1,29.66,SSW,202,0.1,1.1,88,0.00,CLR,OVC,0.00,WeatherDisplay:10.37,2013-04-19 06:02:00,
2013-04-19 07:07:00,36.3,33.1,29.66,SSE,158,0.0,0.0,88,0.00,CLR,OVC,0.00,WeatherDisplay:10.37,2013-04-19 06:07:00,
2013-04-19 07:12:00,36.3,33.1,29.67,SSE,158,0.9,1.1,88,0.00,CLR,OVC,0.00,WeatherDisplay:10.37,2013-04-19 06:12:00,
2013-04-19 07:17:00,36.3,33.1,29.67,South,180,0.0,0.0,88,0.00,CLR,OVC,0.00,WeatherDisplay:10.37,2013-04-19 06:17:00,
2013-04-19 07:22:00,36.3,33.1,29.67,SSE,158,0.0,0.0,88,0.00,CLR,OVC,0.00,WeatherDisplay:10.37,2013-04-19 06:22:00,
2013-04-19 07:27:00,36.3,33.1,29.67,SSE,158,2.4,2.4,88,0.00,CLR,OVC,0.00,WeatherDisplay:10.37,2013-04-19 06:27:00,
2013-04-19 07:32:00,36.5,33.3,29.67,South,180,1.5,1.5,88,0.00,CLR,OVC,0.00,WeatherDisplay:10.37,2013-04-19 06:32:00,
2013-04-19 07:37:00,36.5,33.3,29.67,South,180,1.6,1.6,88,0.00,CLR,OVC,0.00,WeatherDisplay:10.37,2013-04-19 06:37:00,
2013-04-19 07:42:00,36.5,33.3,29.67,SW,225,2.4,2.4,88,0.00,CLR,OVC,0.00,WeatherDisplay:10.37,2013-04-19 06:42:00,
2013-04-19 07:47:00,36.7,33.7,29.69,SW,225,0.5,1.1,89,0.00,CLR,OVC,0.00,WeatherDisplay:10.37,2013-04-19 06:47:00,
2013-04-19 07:52:00,37.0,34.1,29.69,WSW,248,0.0,0.0,89,0.00,CLR,OVC,0.00,WeatherDisplay:10.37,2013-04-19 06:52:00,
2013-04-19 07:57:00,37.0,34.1,29.69,WSW,248,1.0,1.1,89,0.00,CLR,OVC,0.00,WeatherDisplay:10.37,2013-04-19 06:57:00,
2013-04-19 08:02:00,37.2,34.3,29.69,SSW,202,2.0,2.3,89,0.00,CLR,OVC,0.00,WeatherDisplay:10.37,2013-04-19 07:02:00,
2013-04-19 08:07:00,37.2,34.3,29.69,SSE,158,2.1,3.5,89,0.00,CLR,OVC,0.00,WeatherDisplay:10.37,2013-04-19 07:07:00,
2013-04-19 08:12:00,37.2,34.3,29.70,SSW,202,2.3,2.3,89,0.00,CLR,OVC,0.00,WeatherDisplay:10.37,2013-04-19 07:12:00,
2013-04-19 08:17:00,37.6,34.6,29.70,SSW,202,1.8,3.5,89,0.00,CLR,OVC,0.00,WeatherDisplay:10.37,2013-04-19 07:17:00,
2013-04-19 08:22:00,37.6,34.6,29.70,WSW,248,0.0,0.0,89,0.00,CLR,OVC,0.00,WeatherDisplay:10.37,2013-04-19 07:22:00,
2013-04-19 08:27:00,37.9,35.0,29.71,South,180,1.9,0.0,89,0.00,CLR,OVC,0.00,WeatherDisplay:10.37,2013-04-19 07:27:00,
2013-04-19 08:32:00,38.3,35.3,29.72,West,270,2.3,3.5,89,0.00,CLR,OVC,0.00,WeatherDisplay:10.37,2013-04-19 07:32:00,
2013-04-19 08:37:00,38.5,35.5,29.72,WSW,248,2.2,2.3,89,0.00,CLR,OVC,0.00,WeatherDisplay:10.37,2013-04-19 07:37:00,
2013-04-19 08:42:00,38.5,35.5,29.72,WSW,248,1.5,2.3,89,0.00,CLR,OVC,0.00,WeatherDisplay:10.37,2013-04-19 07:42:00,
2013-04-19 08:47:00,38.8,35.9,29.73,WSW,248,1.8,2.3,89,0.00,CLR,OVC,0.00,WeatherDisplay:10.37,2013-04-19 07:47:00,
2013-04-19 08:52:00,39.2,36.2,29.73,SW,225,1.7,2.3,89,0.00,CLR,OVC,0.00,WeatherDisplay:10.37,2013-04-19 07:52:00,
2013-04-19 08:57:00,39.6,36.6,29.73,SW,225,3.0,3.0,89,0.00,CLR,OVC,0.00,WeatherDisplay:10.37,2013-04-19 07:57:00,
2013-04-19 09:02:00,39.6,36.6,29.74,SW,225,0.4,3.5,89,0.00,CLR,OVC,0.00,WeatherDisplay:10.37,2013-04-19 08:02:00,
2013-04-19 09:07:00,40.1,37.1,29.74,SE,135,1.9,0.0,89,0.00,CLR,OVC,0.00,WeatherDisplay:10.37,2013-04-19 08:07:00,
2013-04-19 09:12:00,40.6,37.7,29.74,South,180,1.3,1.3,89,0.00,CLR,OVC,0.00,WeatherDisplay:10.37,2013-04-19 08:12:00,
2013-04-19 09:17:00,40.8,37.5,29.74,WSW,248,2.6,2.6,88,0.00,CLR,OVC,0.00,WeatherDisplay:10.37,2013-04-19 08:17:00,
2013-04-19 09:22:00,41.5,38.5,29.74,NW,315,1.6,3.5,89,0.00,CLR,OVC,0.00,WeatherDisplay:10.37,2013-04-19 08:22:00,
2013-04-19 09:27:00,42.1,39.1,29.74,North,0,1.7,3.5,89,0.00,CLR,OVC,0.00,WeatherDisplay:10.37,2013-04-19 08:27:00,
2013-04-19 09:32:00,42.6,39.0,29.74,NNE,22,4.0,4.6,87,0.00,CLR,OVC,0.00,WeatherDisplay:10.37,2013-04-19 08:32:00,
2013-04-19 09:37:00,42.6,39.0,29.74,NW,315,0.6,3.5,87,0.00,CLR,OVC,0.00,WeatherDisplay:10.37,2013-04-19 08:37:00,
2013-04-19 09:42:00,43.2,39.3,29.74,WNW,292,1.9,2.3,86,0.00,CLR,OVC,0.00,WeatherDisplay:10.37,2013-04-19 08:42:00,
2013-04-19 09:47:00,43.9,39.7,29.75,NNW,338,1.7,4.6,85,0.00,CLR,OVC,0.00,WeatherDisplay:10.37,2013-04-19 08:47:00,
2013-04-19 09:52:00,48.4,45.0,29.75,NNW,338,2.0,2.3,88,0.00,CLR,OVC,0.00,WeatherDisplay:10.37,2013-04-19 08:52:00,
2013-04-19 09:57:00,52.9,48.8,29.75,NNW,338,0.9,3.5,86,0.00,CLR,OVC,0.00,WeatherDisplay:10.37,2013-04-19 08:57:00,
2013-04-19 10:02:00,58.8,54.6,29.75,WNW,292,4.0,4.0,86,0.00,CLR,OVC,0.00,WeatherDisplay:10.37,2013-04-19 09:02:00,
2013-04-19 10:07:00,61.5,51.6,29.75,NNW,338,2.2,3.5,70,0.00,CLR,OVC,0.00,WeatherDisplay:10.37,2013-04-19 09:07:00,
2013-04-19 10:12:00,63.3,53.4,29.76,WSW,248,0.5,3.5,70,0.00,CLR,OVC,0.00,WeatherDisplay:10.37,2013-04-19 09:12:00,
2013-04-19 10:17:00,63.7,48.6,29.76,North,0,2.4,0.0,58,0.00,CLR,OVC,0.00,WeatherDisplay:10.37,2013-04-19 09:17:00,
2013-04-19 10:22:00,64.2,48.7,29.76,NW,315,3.8,3.8,57,0.00,CLR,OVC,0.00,WeatherDisplay:10.37,2013-04-19 09:22:00,
2013-04-19 10:27:00,62.8,45.9,29.76,West,270,2.7,2.7,54,0.00,CLR,OVC,0.00,WeatherDisplay:10.37,2013-04-19 09:27:00,
2013-04-19 10:32:00,61.3,45.0,29.76,WSW,248,1.3,2.3,55,0.00,CLR,OVC,0.00,WeatherDisplay:10.37,2013-04-19 09:32:00,
2013-04-19 10:37:00,57.6,43.3,29.76,WSW,248,3.4,3.5,59,0.00,CLR,OVC,0.00,WeatherDisplay:10.37,2013-04-19 09:37:00,
2013-04-19 10:42:00,58.3,43.6,29.76,SSW,202,1.2,2.3,58,0.00,CLR,OVC,0.00,WeatherDisplay:10.37,2013-04-19 09:42:00,
2013-04-19 10:47:00,59.7,44.5,29.76,SSW,202,1.3,2.3,57,0.00,CLR,OVC,0.00,WeatherDisplay:10.37,2013-04-19 09:47:00,
2013-04-19 10:52:00,61.0,44.7,29.77,SE,135,1.5,2.3,55,0.00,CLR,OVC,0.00,WeatherDisplay:10.37,2013-04-19 09:52:00,
2013-04-19 10:57:00,60.8,44.5,29.77,South,180,0.3,3.5,55,0.00,CLR,OVC,0.00,WeatherDisplay:10.37,2013-04-19 09:57:00,
2013-04-19 11:02:00,61.7,44.4,29.77,SW,225,0.8,5.8,53,0.00,CLR,OVC,0.00,WeatherDisplay:10.37,2013-04-19 10:02:00,
2013-04-19 11:07:00,61.5,43.2,29.77,SSW,202,2.6,9.2,51,0.00,CLR,OVC,0.00,WeatherDisplay:10.37,2013-04-19 10:07:00,
2013-04-19 11:12:00,60.6,42.4,29.77,SSW,202,2.7,3.5,51,0.00,CLR,OVC,0.00,WeatherDisplay:10.37,2013-04-19 10:12:00,
2013-04-19 11:17:00,59.9,41.7,29.77,SSE,158,0.9,4.6,51,0.00,CLR,OVC,0.00,WeatherDisplay:10.37,2013-04-19 10:17:00,
2013-04-19 11:22:00,58.6,40.6,29.77,SE,135,3.2,3.5,51,0.00,CLR,OVC,0.00,WeatherDisplay:10.37,2013-04-19 10:22:00,
2013-04-19 11:27:00,55.9,38.1,29.77,SW,225,0.4,3.5,51,0.00,CLR,OVC,0.00,WeatherDisplay:10.37,2013-04-19 10:27:00,
2013-04-19 11:32:00,54.3,37.5,29.78,SSW,202,3.5,3.5,53,0.00,CLR,OVC,0.00,WeatherDisplay:10.37,2013-04-19 10:32:00,
2013-04-19 11:37:00,52.2,36.5,29.78,South,180,4.1,4.1,55,0.00,CLR,OVC,0.00,WeatherDisplay:10.37,2013-04-19 10:37:00,
2013-04-19 11:42:00,51.4,36.7,29.78,NW,315,0.7,1.1,57,0.00,CLR,OVC,0.00,WeatherDisplay:10.37,2013-04-19 10:42:00,
2013-04-19 11:47:00,51.4,37.6,29.78,WNW,292,4.4,4.4,59,0.00,CLR,OVC,0.00,WeatherDisplay:10.37,2013-04-19 10:47:00,
2013-04-19 11:52:00,51.6,38.6,29.79,WSW,248,2.9,3.5,61,0.00,CLR,OVC,0.00,WeatherDisplay:10.37,2013-04-19 10:52:00,
2013-04-19 11:57:00,52.2,39.1,29.79,SSW,202,0.7,3.5,61,0.00,CLR,OVC,0.00,WeatherDisplay:10.37,2013-04-19 10:57:00,
2013-04-19 12:02:00,52.0,38.1,29.79,West,270,7.5,8.1,59,0.00,CLR,OVC,0.00,WeatherDisplay:10.37,2013-04-19 11:02:00,
2013-04-19 12:07:00,52.2,38.7,29.79,SSE,158,3.3,3.5,60,0.00,CLR,OVC,0.00,WeatherDisplay:10.37,2013-04-19 11:07:00,
2013-04-19 12:12:00,52.3,38.4,29.79,SW,225,5.3,5.8,59,0.00,CLR,OVC,0.00,WeatherDisplay:10.37,2013-04-19 11:12:00,
2013-04-19 12:17:00,52.3,38.4,29.79,SW,225,4.7,6.9,59,0.00,CLR,OVC,0.00,WeatherDisplay:10.37,2013-04-19 11:17:00,
2013-04-19 12:22:00,52.3,38.4,29.79,SSE,158,3.9,3.9,59,0.00,CLR,OVC,0.00,WeatherDisplay:10.37,2013-04-19 11:22:00,
2013-04-19 12:27:00,52.3,38.0,29.79,WSW,248,7.1,7.1,58,0.00,CLR,OVC,0.00,WeatherDisplay:10.37,2013-04-19 11:27:00,
2013-04-19 12:32:00,52.3,38.4,29.79,West,270,2.1,4.6,59,0.00,CLR,OVC,0.00,WeatherDisplay:10.37,2013-04-19 11:32:00,
2013-04-19 12:37:00,52.5,38.2,29.79,South,180,5.1,5.1,58,0.00,CLR,OVC,0.00,WeatherDisplay:10.37,2013-04-19 11:37:00,
2013-04-19 12:42:00,52.7,38.3,29.80,SSE,158,2.8,3.5,58,0.00,CLR,OVC,0.00,WeatherDisplay:10.37,2013-04-19 11:42:00,
2013-04-19 12:47:00,52.9,38.5,29.80,SW,225,6.6,8.1,58,0.00,CLR,OVC,0.00,WeatherDisplay:10.37,2013-04-19 11:47:00,
2013-04-19 12:52:00,52.9,38.5,29.80,South,180,3.8,4.6,58,0.00,CLR,OVC,0.00,WeatherDisplay:10.37,2013-04-19 11:52:00,
2013-04-19 12:57:00,52.7,38.3,29.80,SSE,158,3.6,3.6,58,0.00,CLR,OVC,0.00,WeatherDisplay:10.37,2013-04-19 11:57:00,
2013-04-19 13:02:00,52.5,37.7,29.80,South,180,5.9,5.9,57,0.00,CLR,OVC,0.00,WeatherDisplay:10.37,2013-04-19 12:02:00,
2013-04-19 13:07:00,52.5,37.7,29.80,West,270,0.7,3.5,57,0.00,CLR,OVC,0.00,WeatherDisplay:10.37,2013-04-19 12:07:00,
2013-04-19 13:12:00,52.7,38.3,29.80,SSE,158,1.6,1.6,58,0.00,CLR,OVC,0.00,WeatherDisplay:10.37,2013-04-19 12:12:00,
2013-04-19 13:17:00,52.9,38.5,29.80,SSE,158,6.1,10.4,58,0.00,CLR,OVC,0.00,WeatherDisplay:10.37,2013-04-19 12:17:00,
2013-04-19 13:22:00,52.9,38.1,29.80,SW,225,14.8,16.1,57,0.00,CLR,OVC,0.00,WeatherDisplay:10.37,2013-04-19 12:22:00,
2013-04-19 13:27:00,52.9,38.1,29.80,SW,225,1.8,3.5,57,0.00,CLR,OVC,0.00,WeatherDisplay:10.37,2013-04-19 12:27:00,
2013-04-19 13:32:00,52.5,38.2,29.81,SW,225,2.7,3.5,58,0.00,CLR,OVC,0.00,WeatherDisplay:10.37,2013-04-19 12:32:00,
2013-04-19 13:37:00,52.2,37.8,29.81,SSW,202,5.1,10.4,58,0.00,CLR,OVC,0.00,WeatherDisplay:10.37,2013-04-19 12:37:00,
2013-04-19 13:42:00,52.0,37.7,29.81,WSW,248,7.4,7.4,58,0.00,CLR,OVC,0.00,WeatherDisplay:10.37,2013-04-19 12:42:00,
2013-04-19 13:47:00,52.0,37.7,29.81,SSE,158,4.2,4.6,58,0.00,CLR,OVC,0.00,WeatherDisplay:10.37,2013-04-19 12:47:00,
2013-04-19 13:52:00,52.2,37.8,29.81,South,180,4.0,4.0,58,0.00,CLR,OVC,0.00,WeatherDisplay:10.37,2013-04-19 12:52:00,
2013-04-19 13:57:00,52.3,38.0,29.81,WSW,248,4.6,4.6,58,0.00,CLR,OVC,0.00,WeatherDisplay:10.37,2013-04-19 12:57:00,
2013-04-19 14:02:00,52.9,39.4,29.81,SSW,202,4.2,10.4,60,0.00,CLR,OVC,0.00,WeatherDisplay:10.37,2013-04-19 13:02:00,
2013-04-19 14:07:00,53.2,38.8,29.81,South,180,5.5,5.8,58,0.00,CLR,OVC,0.00,WeatherDisplay:10.37,2013-04-19 13:07:00,
2013-04-19 14:12:00,53.4,38.6,29.81,South,180,7.9,11.5,57,0.00,CLR,OVC,0.00,WeatherDisplay:10.37,2013-04-19 13:12:00,
2013-04-19 14:17:00,53.2,38.4,29.81,SSW,202,5.4,12.3,57,0.00,CLR,OVC,0.00,WeatherDisplay:10.37,2013-04-19 13:17:00,
2013-04-19 14:22:00,52.9,38.1,29.81,South,180,11.8,13.8,57,0.00,CLR,OVC,0.00,WeatherDisplay:10.37,2013-04-19 13:22:00,
2013-04-19 14:27:00,52.7,37.9,29.81,WSW,248,5.4,8.5,57,0.00,CLR,OVC,0.00,WeatherDisplay:10.37,2013-04-19 13:27:00,
2013-04-19 14:33:00,52.5,38.2,29.81,WNW,292,6.3,6.9,58,0.00,CLR,OVC,0.00,WeatherDisplay:10.37,2013-04-19 13:33:00,
2013-04-19 14:38:00,52.5,38.2,29.81,SW,225,3.5,9.8,58,0.00,CLR,OVC,0.00,WeatherDisplay:10.37,2013-04-19 13:38:00,
2013-04-19 14:43:00,52.9,38.1,29.82,SW,225,6.9,6.9,57,0.00,CLR,OVC,0.00,WeatherDisplay:10.37,2013-04-19 13:43:00,
2013-04-19 14:48:00,52.9,38.1,29.81,SSE,158,3.8,4.2,57,0.00,CLR,OVC,0.00,WeatherDisplay:10.37,2013-04-19 13:48:00,
2013-04-19 14:53:00,52.9,38.1,29.81,SSW,202,9.2,10.4,57,0.00,CLR,OVC,0.00,WeatherDisplay:10.37,2013-04-19 13:53:00,
2013-04-19 14:58:00,52.9,38.1,29.81,SSW,202,2.5,12.1,57,0.00,CLR,OVC,0.00,WeatherDisplay:10.37,2013-04-19 13:58:00,
2013-04-19 15:03:00,52.9,37.6,29.81,West,270,11.5,11.5,56,0.00,CLR,OVC,0.00,WeatherDisplay:10.37,2013-04-19 14:03:00,
2013-04-19 15:08:00,52.9,37.6,29.81,SSW,202,6.6,6.9,56,0.00,CLR,OVC,0.00,WeatherDisplay:10.37,2013-04-19 14:08:00,
2013-04-19 15:13:00,52.7,37.4,29.81,SSW,202,3.1,3.5,56,0.00,CLR,OVC,0.00,WeatherDisplay:10.37,2013-04-19 14:13:00,
2013-04-19 15:18:00,52.5,37.3,29.82,SW,225,5.9,9.2,56,0.00,CLR,OVC,0.00,WeatherDisplay:10.37,2013-04-19 14:18:00,
2013-04-19 15:23:00,52.7,37.4,29.82,South,180,6.9,16.1,56,0.00,CLR,OVC,0.00,WeatherDisplay:10.37,2013-04-19 14:23:00,
2013-04-19 15:28:00,52.5,37.3,29.82,West,270,0.6,8.3,56,0.00,CLR,OVC,0.00,WeatherDisplay:10.37,2013-04-19 14:28:00,
2013-04-19 15:33:00,52.5,37.7,29.82,SE,135,3.7,3.7,57,0.00,CLR,OVC,0.00,WeatherDisplay:10.37,2013-04-19 14:33:00,
2013-04-19 15:38:00,52.3,38.0,29.82,SW,225,7.9,8.1,58,0.00,CLR,OVC,0.00,WeatherDisplay:10.37,2013-04-19 14:38:00,
2013-04-19 15:43:00,52.3,37.5,29.82,WSW,248,8.5,8.5,57,0.00,CLR,OVC,0.00,WeatherDisplay:10.37,2013-04-19 14:43:00,
2013-04-19 15:48:00,52.3,37.5,29.82,SW,225,14.8,14.8,57,0.00,CLR,OVC,0.00,WeatherDisplay:10.37,2013-04-19 14:48:00,
2013-04-19 15:53:00,52.2,37.4,29.83,SE,135,11.9,12.7,57,0.00,CLR,OVC,0.00,WeatherDisplay:10.37,2013-04-19 14:53:00,
2013-04-19 15:58:00,52.0,37.2,29.82,WSW,248,10.2,10.4,57,0.00,CLR,OVC,0.00,WeatherDisplay:10.37,2013-04-19 14:58:00,
2013-04-19 16:03:00,52.0,37.2,29.83,WSW,248,7.4,12.7,57,0.00,CLR,OVC,0.00,WeatherDisplay:10.37,2013-04-19 15:03:00,
2013-04-19 16:08:00,51.6,36.9,29.83,South,180,3.8,17.0,57,0.00,CLR,OVC,0.00,WeatherDisplay:10.37,2013-04-19 15:08:00,
2013-04-19 16:13:00,51.6,36.9,29.83,SSW,202,5.1,5.1,57,0.00,CLR,OVC,0.00,WeatherDisplay:10.37,2013-04-19 15:13:00,
2013-04-19 16:18:00,51.3,36.5,29.83,SW,225,6.4,6.9,57,0.00,CLR,OVC,0.00,WeatherDisplay:10.37,2013-04-19 15:18:00,
2013-04-19 16:23:00,51.1,36.4,29.83,SW,225,9.5,10.4,57,0.00,CLR,OVC,0.00,WeatherDisplay:10.37,2013-04-19 15:23:00,
2013-04-19 16:28:00,51.1,36.8,29.83,SW,225,9.8,15.4,58,0.00,CLR,OVC,0.00,WeatherDisplay:10.37,2013-04-19 15:28:00,
2013-04-19 16:33:00,51.1,36.8,29.83,SW,225,8.2,9.2,58,0.00,CLR,OVC,0.00,WeatherDisplay:10.37,2013-04-19 15:33:00,
2013-04-19 16:38:00,50.7,36.5,29.83,SSW,202,4.6,5.8,58,0.00,CLR,OVC,0.00,WeatherDisplay:10.37,2013-04-19 15:38:00,
2013-04-19 16:43:00,50.7,36.5,29.83,WSW,248,7.8,8.1,58,0.00,CLR,OVC,0.00,WeatherDisplay:10.37,2013-04-19 15:43:00,
2013-04-19 16:48:00,50.7,36.9,29.83,WSW,248,12.8,12.8,59,0.00,CLR,OVC,0.00,WeatherDisplay:10.37,2013-04-19 15:48:00,
2013-04-19 16:53:00,50.5,36.7,29.83,WSW,248,11.8,11.8,59,0.00,CLR,OVC,0.00,WeatherDisplay:10.37,2013-04-19 15:53:00,
2013-04-19 16:58:00,50.7,37.3,29.83,South,180,10.2,11.5,60,0.00,CLR,OVC,0.00,WeatherDisplay:10.37,2013-04-19 15:58:00,
2013-04-19 17:03:00,50.7,36.9,29.83,WSW,248,12.8,12.8,59,0.00,CLR,OVC,0.00,WeatherDisplay:10.37,2013-04-19 16:03:00,
2013-04-19 17:08:00,50.5,37.2,29.83,SW,225,10.8,12.7,60,0.00,CLR,OVC,0.00,WeatherDisplay:10.37,2013-04-19 16:08:00,
2013-04-19 17:13:00,50.4,37.0,29.83,WSW,248,6.7,13.8,60,0.00,CLR,OVC,0.00,WeatherDisplay:10.37,2013-04-19 16:13:00,
2013-04-19 17:18:00,50.4,37.0,29.83,WSW,248,8.5,9.2,60,0.00,CLR,OVC,0.00,WeatherDisplay:10.37,2013-04-19 16:18:00,
2013-04-19 17:23:00,50.2,36.8,29.83,WNW,292,4.2,4.6,60,0.00,CLR,OVC,0.00,WeatherDisplay:10.37,2013-04-19 16:23:00,
2013-04-19 17:28:00,50.2,36.8,29.83,West,270,8.6,9.2,60,0.00,CLR,OVC,0.00,WeatherDisplay:10.37,2013-04-19 16:28:00,
2013-04-19 17:33:00,50.0,36.7,29.84,SW,225,8.1,10.4,60,0.00,CLR,OVC,0.00,WeatherDisplay:10.37,2013-04-19 16:33:00,
2013-04-19 17:38:00,49.8,36.9,29.84,WSW,248,8.2,10.4,61,0.00,CLR,OVC,0.00,WeatherDisplay:10.37,2013-04-19 16:38:00,
2013-04-19 17:43:00,49.8,36.9,29.84,WSW,248,9.6,9.6,61,0.00,CLR,OVC,0.00,WeatherDisplay:10.37,2013-04-19 16:43:00,
2013-04-19 17:48:00,49.8,36.9,29.85,South,180,8.7,9.2,61,0.00,CLR,OVC,0.00,WeatherDisplay:10.37,2013-04-19 16:48:00,
2013-04-19 17:53:00,49.8,36.5,29.85,WSW,248,6.1,6.1,60,0.00,CLR,OVC,0.00,WeatherDisplay:10.37,2013-04-19 16:53:00,
2013-04-19 17:58:00,49.3,36.4,29.85,SW,225,3.7,5.8,61,0.00,CLR,OVC,0.00,WeatherDisplay:10.37,2013-04-19 16:58:00,
2013-04-19 18:03:00,49.3,36.4,29.85,WSW,248,14.6,14.6,61,0.00,CLR,OVC,0.00,WeatherDisplay:10.37,2013-04-19 17:03:00,
2013-04-19 18:08:00,49.1,36.6,29.85,SW,225,5.9,6.9,62,0.00,CLR,OVC,0.00,WeatherDisplay:10.37,2013-04-19 17:08:00,
2013-04-19 18:13:00,48.9,36.5,29.85,WSW,248,9.0,16.1,62,0.00,CLR,OVC,0.00,WeatherDisplay:10.37,2013-04-19 17:13:00,
2013-04-19 18:18:00,48.9,36.5,29.85,WSW,248,2.3,12.7,62,0.00,CLR,OVC,0.00,WeatherDisplay:10.37,2013-04-19 17:18:00,
2013-04-19 18:23:00,48.7,36.7,29.85,WSW,248,3.9,4.6,63,0.00,CLR,OVC,0.00,WeatherDisplay:10.37,2013-04-19 17:23:00,
2013-04-19 18:28:00,48.6,36.5,29.84,West,270,2.7,4.6,63,0.00,CLR,OVC,0.00,WeatherDisplay:10.37,2013-04-19 17:28:00,
2013-04-19 18:33:00,48.2,36.2,29.85,SE,135,9.2,9.2,63,0.00,CLR,OVC,0.00,WeatherDisplay:10.37,2013-04-19 17:33:00,
2013-04-19 18:38:00,48.0,36.0,29.85,South,180,6.0,6.9,63,0.00,CLR,OVC,0.00,WeatherDisplay:10.37,2013-04-19 17:38:00,
2013-04-19 18:43:00,47.8,35.8,29.85,SW,225,9.2,9.2,63,0.00,CLR,OVC,0.00,WeatherDisplay:10.37,2013-04-19 17:43:00,
2013-04-19 18:48:00,47.8,36.2,29.85,WSW,248,12.7,12.7,64,0.00,CLR,OVC,0.00,WeatherDisplay:10.37,2013-04-19 17:48:00,
2013-04-19 18:53:00,47.8,36.2,29.85,WSW,248,6.5,15.0,64,0.00,CLR,OVC,0.00,WeatherDisplay:10.37,2013-04-19 17:53:00,
2013-04-19 18:58:00,47.7,36.1,29.85,SW,225,10.0,10.4,64,0.00,CLR,OVC,0.00,WeatherDisplay:10.37,2013-04-19 17:58:00,
2013-04-19 19:03:00,47.5,35.9,29.85,SW,225,7.6,11.5,64,0.00,CLR,OVC,0.00,WeatherDisplay:10.37,2013-04-19 18:03:00,
2013-04-19 19:08:00,47.1,35.6,29.86,SSW,202,6.5,6.9,64,0.00,CLR,OVC,0.00,WeatherDisplay:10.37,2013-04-19 18:08:00,
2013-04-19 19:13:00,47.1,35.6,29.85,SSW,202,4.1,5.8,64,0.00,CLR,OVC,0.00,WeatherDisplay:10.37,2013-04-19 18:13:00,
2013-04-19 19:18:00,46.9,35.4,29.86,West,270,8.0,10.4,64,0.00,CLR,OVC,0.00,WeatherDisplay:10.37,2013-04-19 18:18:00,
2013-04-19 19:23:00,46.9,35.4,29.86,SW,225,7.9,7.9,64,0.00,CLR,OVC,0.00,WeatherDisplay:10.37,2013-04-19 18:23:00,
2013-04-19 19:28:00,46.8,35.2,29.86,SW,225,4.4,6.9,64,0.00,CLR,OVC,0.00,WeatherDisplay:10.37,2013-04-19 18:28:00,
2013-04-19 19:33:00,46.6,35.0,29.86,WSW,248,3.5,3.5,64,0.00,CLR,OVC,0.00,WeatherDisplay:10.37,2013-04-19 18:33:00,
2013-04-19 19:38:00,46.6,35.0,29.86,West,270,5.6,5.8,64,0.00,CLR,OVC,0.00,WeatherDisplay:10.37,2013-04-19 18:38:00,
2013-04-19 19:43:00,46.4,35.3,29.86,SW,225,0.3,4.6,65,0.00,CLR,OVC,0.00,WeatherDisplay:10.37,2013-04-19 18:43:00,
2013-04-19 19:48:00,46.2,35.1,29.86,WSW,248,4.5,4.6,65,0.00,CLR,OVC,0.00,WeatherDisplay:10.37,2013-04-19 18:48:00,
2013-04-19 19:53:00,46.2,35.1,29.87,SSW,202,2.6,0.0,65,0.00,CLR,OVC,0.00,WeatherDisplay:10.37,2013-04-19 18:53:00,
2013-04-19 19:58:00,46.0,34.9,29.86,SSW,202,4.3,4.6,65,0.00,CLR,OVC,0.00,WeatherDisplay:10.37,2013-04-19 18:58:00,
2013-04-19 20:03:00,45.9,34.8,29.86,South,180,1.6,2.3,65,0.00,CLR,OVC,0.00,WeatherDisplay:10.37,2013-04-19 19:03:00,
2013-04-19 20:08:00,45.7,35.0,29.86,South,180,1.6,2.3,66,0.00,CLR,OVC,0.00,WeatherDisplay:10.37,2013-04-19 19:08:00,
2013-04-19 20:13:00,45.5,34.8,29.86,SW,225,3.6,3.6,66,0.00,CLR,OVC,0.00,WeatherDisplay:10.37,2013-04-19 19:13:00,
2013-04-19 20:18:00,45.3,34.6,29.86,South,180,2.6,3.5,66,0.00,CLR,OVC,0.00,WeatherDisplay:10.37,2013-04-19 19:18:00,
2013-04-19 20:23:00,45.1,34.8,29.87,SSW,202,0.4,2.3,67,0.00,CLR,OVC,0.00,WeatherDisplay:10.37,2013-04-19 19:23:00,
2013-04-19 20:28:00,44.8,34.5,29.87,South,180,2.9,4.6,67,0.00,CLR,OVC,0.00,WeatherDisplay:10.37,2013-04-19 19:28:00,
2013-04-19 20:33:00,44.8,34.9,29.87,SSE,158,4.3,4.3,68,0.00,CLR,OVC,0.00,WeatherDisplay:10.37,2013-04-19 19:33:00,
2013-04-19 20:38:00,44.2,34.3,29.87,South,180,2.6,2.6,68,0.00,CLR,OVC,0.00,WeatherDisplay:10.37,2013-04-19 19:38:00,
2013-04-19 20:43:00,44.2,34.3,29.87,SSW,202,3.1,3.5,68,0.00,CLR,OVC,0.00,WeatherDisplay:10.37,2013-04-19 19:43:00,
2013-04-19 20:48:00,43.9,34.4,29.87,SSW,202,2.6,3.5,69,0.00,CLR,OVC,0.00,WeatherDisplay:10.37,2013-04-19 19:48:00,
2013-04-19 20:53:00,43.9,34.4,29.88,SSE,158,2.3,2.3,69,0.00,CLR,OVC,0.00,WeatherDisplay:10.37,2013-04-19 19:53:00,
2013-04-19 20:58:00,43.5,34.0,29.88,SSE,158,2.7,3.5,69,0.00,CLR,OVC,0.00,WeatherDisplay:10.37,2013-04-19 19:58:00,
2013-04-19 21:03:00,43.3,33.8,29.88,South,180,3.7,3.7,69,0.00,CLR,OVC,0.00,WeatherDisplay:10.37,2013-04-19 20:03:00,
2013-04-19 21:08:00,43.0,33.5,29.88,SE,135,2.6,3.5,69,0.00,CLR,OVC,0.00,WeatherDisplay:10.37,2013-04-19 20:08:00,
2013-04-19 21:13:00,42.8,33.7,29.88,South,180,2.2,3.5,70,0.00,CLR,OVC,0.00,WeatherDisplay:10.37,2013-04-19 20:13:00,
2013-04-19 21:18:00,42.6,33.5,29.88,SSW,202,3.1,3.5,70,0.00,CLR,OVC,0.00,WeatherDisplay:10.37,2013-04-19 20:18:00,
2013-04-19 21:23:00,42.6,33.9,29.88,South,180,4.5,4.6,71,0.00,CLR,OVC,0.00,WeatherDisplay:10.37,2013-04-19 20:23:00,
2013-04-19 21:28:00,42.4,33.7,29.88,SSE,158,0.0,0.0,71,0.00,CLR,OVC,0.00,WeatherDisplay:10.37,2013-04-19 20:28:00,
2013-04-19 21:33:00,42.3,33.5,29.88,SSW,202,2.1,2.1,71,0.00,CLR,OVC,0.00,WeatherDisplay:10.37,2013-04-19 20:33:00,
2013-04-19 21:38:00,42.1,33.4,29.88,SSW,202,1.6,3.5,71,0.00,CLR,OVC,0.00,WeatherDisplay:10.37,2013-04-19 20:38:00,
2013-04-19 21:43:00,41.9,33.2,29.89,SSW,202,2.1,3.5,71,0.00,CLR,OVC,0.00,WeatherDisplay:10.37,2013-04-19 20:43:00,
2013-04-19 21:48:00,41.7,33.4,29.89,South,180,1.8,2.3,72,0.00,CLR,OVC,0.00,WeatherDisplay:10.37,2013-04-19 20:48:00,
2013-04-19 21:53:00,41.7,33.4,29.89,SSE,158,3.5,5.8,72,0.00,CLR,OVC,0.00,WeatherDisplay:10.37,2013-04-19 20:53:00,
2013-04-19 21:58:00,41.9,33.5,29.89,SSE,158,2.5,2.5,72,0.00,CLR,OVC,0.00,WeatherDisplay:10.37,2013-04-19 20:58:00,
2013-04-19 22:03:00,42.1,33.7,29.89,South,180,3.4,3.5,72,0.00,CLR,OVC,0.00,WeatherDisplay:10.37,2013-04-19 21:03:00,
2013-04-19 22:08:00,42.1,33.7,29.90,South,180,3.5,4.6,72,0.00,CLR,OVC,0.00,WeatherDisplay:10.37,2013-04-19 21:08:00,
2013-04-19 22:13:00,41.9,33.5,29.90,SSE,158,5.4,5.8,72,0.00,CLR,OVC,0.00,WeatherDisplay:10.37,2013-04-19 21:13:00,
2013-04-19 22:19:00,41.9,33.9,29.89,SSE,158,3.4,3.5,73,0.00,CLR,OVC,0.00,WeatherDisplay:10.37,2013-04-19 21:19:00,
2013-04-19 22:24:00,41.9,33.9,29.89,SSE,158,4.9,4.9,73,0.00,CLR,OVC,0.00,WeatherDisplay:10.37,2013-04-19 21:24:00,
2013-04-19 22:29:00,41.7,33.7,29.90,SSE,158,2.6,3.5,73,0.00,CLR,OVC,0.00,WeatherDisplay:10.37,2013-04-19 21:29:00,
2013-04-19 22:34:00,41.5,33.5,29.91,South,180,3.6,3.8,73,0.00,CLR,OVC,0.00,WeatherDisplay:10.37,2013-04-19 21:34:00,
2013-04-19 22:39:00,41.4,33.4,29.90,South,180,3.5,3.5,73,0.00,CLR,OVC,0.00,WeatherDisplay:10.37,2013-04-19 21:39:00,
2013-04-19 22:44:00,41.4,33.4,29.90,South,180,2.9,3.5,73,0.00,CLR,OVC,0.00,WeatherDisplay:10.37,2013-04-19 21:44:00,
2013-04-19 22:49:00,41.2,33.2,29.90,South,180,2.5,2.5,73,0.00,CLR,OVC,0.00,WeatherDisplay:10.37,2013-04-19 21:49:00,
2013-04-19 22:54:00,41.2,33.2,29.90,South,180,1.6,1.8,73,0.00,CLR,OVC,0.00,WeatherDisplay:10.37,2013-04-19 21:54:00,
2013-04-19 22:59:00,41.2,33.2,29.91,SSW,202,2.2,2.3,73,0.00,CLR,OVC,0.00,WeatherDisplay:10.37,2013-04-19 21:59:00,
2013-04-19 23:04:00,41.0,33.3,29.91,WSW,248,0.1,1.1,74,0.00,CLR,OVC,0.00,WeatherDisplay:10.37,2013-04-19 22:04:00,
2013-04-19 23:09:00,40.8,33.2,29.91,SSW,202,1.4,1.4,74,0.00,CLR,OVC,0.00,WeatherDisplay:10.37,2013-04-19 22:09:00,
2013-04-19 23:14:00,40.8,33.2,29.91,SW,225,0.0,4.0,74,0.00,CLR,OVC,0.00,WeatherDisplay:10.37,2013-04-19 22:14:00,
2013-04-19 23:19:00,41.0,33.7,29.91,SSW,202,3.8,3.8,75,0.00,CLR,OVC,0.00,WeatherDisplay:10.37,2013-04-19 22:19:00,
2013-04-19 23:24:00,41.2,33.9,29.91,South,180,1.2,2.2,75,0.00,CLR,OVC,0.00,WeatherDisplay:10.37,2013-04-19 22:24:00,
2013-04-19 23:29:00,41.2,33.9,29.91,SW,225,5.3,5.8,75,0.00,CLR,OVC,0.00,WeatherDisplay:10.37,2013-04-19 22:29:00,
2013-04-19 23:34:00,41.4,34.0,29.91,SSW,202,2.8,5.4,75,0.00,CLR,OVC,0.00,WeatherDisplay:10.37,2013-04-19 22:34:00,
2013-04-19 23:39:00,41.4,34.4,29.91,SSE,158,4.7,4.7,76,0.00,CLR,OVC,0.00,WeatherDisplay:10.37,2013-04-19 22:39:00,
2013-04-19 23:44:00,41.5,34.5,29.91,SSW,202,5.5,5.8,76,0.00,CLR,OVC,0.00,WeatherDisplay:10.37,2013-04-19 22:44:00,
2013-04-19 23:49:00,41.5,34.5,29.91,South,180,3.6,3.6,76,0.00,CLR,OVC,0.00,WeatherDisplay:10.37,2013-04-19 22:49:00,
2013-04-19 23:54:00,41.5,34.5,29.91,South,180,1.6,3.1,76,0.00,CLR,OVC,0.00,WeatherDisplay:10.37,2013-04-19 22:54:00,
2013-04-19 23:59:00,41.4,34.4,29.91,SW,225,1.9,2.3,76,0.00,CLR,OVC,0.00,WeatherDisplay:10.37,2013-04-19 22:59:00,